Location: Rochester
(43.1547°N, 77.6158°W)
Time: 06:20:33
(UTC-05:00)

Tiangong 2 - Visible Passes

Search period start: 24 November 2017 00:00
Search period end: 04 December 2017 00:00
Orbit: 386 x 392 km, 42.8° (Epoch: 24 November)

Date Brightness Start Highest point End Pass type
(mag) Time Alt. Az. Time Alt. Az. Time Alt. Az.
24 Nov 4.4 06:41:40 10° S 06:43:07 12° SE 06:44:32 10° ESE visible
26 Nov 3.7 06:20:47 10° SSW 06:23:16 21° SSE 06:25:46 10° E visible
27 Nov 4.1 05:23:38 10° S 05:25:15 13° SSE 05:26:52 10° ESE visible
28 Nov 2.7 06:00:32 10° SW 06:03:27 33° SSE 06:06:23 10° E visible
29 Nov 3.3 05:05:28 22° SSE 05:05:28 22° SSE 05:07:54 10° E visible
29 Nov 1.4 06:38:41 10° WSW 06:41:52 68° S 06:45:03 10° E visible
30 Nov 1.7 05:42:37 34° SW 05:43:38 50° SSE 05:46:46 10° E visible
01 Dec 4.0 04:47:19 18° E 04:47:19 18° E 04:48:24 10° E visible
01 Dec 1.1 06:19:38 16° W 06:22:08 82° S 06:25:19 10° E visible
02 Dec 1.5 05:24:13 60° ESE 05:24:13 60° ESE 05:27:01 10° E visible
03 Dec 1.0 06:01:02 33° W 06:02:20 86° S 06:05:33 10° E visible
